Voltar ao catálogo

TITAN 3C TRANSTAGE DEB

LostMEO
NORAD 62724·DEBRIS·🇺🇸 United States

Lançado Sep 26, 1968 de Cape Canaveral Space Force Station

Loading…

Próximas Passagens (próximas 24 horas)

TLE

ObsoletoSource: Space-Track

Época: Feb 27, 2025, 08:09 UTC

1 62724U 68081AS  25058.34013748 -.00000136  00000-0  00000-0 0  9995
2 62724   4.6543  35.9399 1129064 297.9914  51.2321  0.98137048  7525

Acompanhe TITAN 3C TRANSTAGE DEB em tempo real com AllMySat

Download on the App Store